Ct-Aws, South Africa

7:58 PM SAST on February 07, 2016 (GMT +0200)
Cape Town International

Weather History for FACT - November, 2012

Change the Weather History Date:

Thursday, November 8, 2012

  Actual Average Record
Temperature  
Mean Temperature 68 °F -  
Max Temperature 83 °F 72 °F 83 °F (2012)
Min Temperature 54 °F 54 °F 44 °F (1998)
Cooling Degree Days 4    
Growing Degree Days 18 (Base 50)    
Moisture  
Dew Point 50 °F    
Average Humidity 49    
Maximum Humidity 64    
Minimum Humidity 20    
Precipitation  
Precipitation 0.00 in - - ()
Sea Level Pressure  
Sea Level Pressure 29.95 in    
Wind  
Wind Speed 9 mph ()    
Max Wind Speed 18 mph    
Max Gust Speed -    
Visibility 12.6 miles    
Events      
Averages and records for this station are not official NWS values.
T = Trace of Precipitation, MM = Missing Value Source: Averaged Metar Reports

Daily Weather History Graph

Daily Weather History Graph

Search for Another Location

Airport or City:

Trip Planner

Search our weather history database for the weather conditions in past years. The results will help you decide how hot, cold, wet, or windy it might be!

Date:

Astronomy

Nov. 08, 2012 Rise Set
Actual Time 5:38 AM SAST 7:20 PM SAST
Civil Twilight 5:11 AM SAST 7:47 PM SAST
Nautical Twilight 4:38 AM SAST 8:20 PM SAST
Astronomical Twilight 4:04 AM SAST 8:54 PM SAST
Moon 1:47 AM SAST (11/8) 1:33 PM SAST (11/8)
Length of Visible Light 14h 36m
Length of Day
13h 42m
Waning Crescent, 36% of the Moon is Illuminated
Nov 8
Waning Crescent
Nov 14
New
Nov 20
First Quarter
Nov 28
Full
Dec 6
Last Quarter

Hourly Weather History & Observations

Time (SAST) Temp. Heat Index Dew Point Humidity Pressure Visibility Wind Dir Wind Speed Gust Speed Precip Events Conditions
12:00 AM 62.6 °F - 48.2 °F 59% 30.06 in 6.2 mi SE 17.3 mph - N/A   Partly Cloudy
1:00 AM 60.8 °F - 46.4 °F 59% 30.04 in 6.2 mi SE 12.7 mph - N/A   Partly Cloudy
2:00 AM 62 °F - 47 °F 48% 30.04 in 19 mi SE 10.4 mph - -  
2:00 AM 62.6 °F - 48.2 °F 59% 30.04 in - SE 11.5 mph - N/A   Clear
3:00 AM 59.0 °F - 44.6 °F 59% 30.01 in - SE 12.7 mph - N/A   Clear
4:00 AM 60.8 °F - 46.4 °F 59% 30.01 in - NW 4.6 mph - N/A   Clear
5:00 AM 57 °F - 46 °F 56% 30.02 in 19 mi SW 4.6 mph - -  
5:00 AM 57.2 °F - 44.6 °F 63% 30.01 in - WSW 4.6 mph - N/A   Clear
6:00 AM 59.0 °F - 44.6 °F 59% 30.01 in - Variable 2.3 mph - N/A   Clear
7:00 AM 62.6 °F - 46.4 °F 55% 30.01 in - WSW 8.1 mph - N/A   Clear
8:00 AM 67 °F - 49 °F 41% 30.03 in 25 mi West 5.8 mph - -   Clear
8:00 AM 68.0 °F - 48.2 °F 49% 30.04 in - West 5.8 mph - N/A   Clear
9:00 AM 71.6 °F - 46.4 °F 41% 30.01 in - SSW 4.6 mph - N/A   Clear
10:00 AM 77.0 °F - 46.4 °F 34% 30.01 in - SSW 5.8 mph - N/A   Clear
11:00 AM 79 °F - 45 °F 20% 30.00 in 25 mi SW 6.9 mph - -   Clear
11:00 AM 78.8 °F - 44.6 °F 30% 29.98 in - SW 6.9 mph - N/A   Clear
12:00 PM 80.6 °F - 46.4 °F 30% 29.98 in - SSE 8.1 mph - N/A   Clear
1:00 PM 80.6 °F - 50.0 °F 34% 29.95 in - SW 18.4 mph - N/A   Clear
2:00 PM 83 °F - 50 °F 21% 29.92 in 25 mi South 17.3 mph - -   Clear
2:00 PM 82.4 °F - 50.0 °F 32% 29.92 in - South 16.1 mph - N/A   Clear
3:00 PM 82.4 °F 81.7 °F 55.4 °F 39% 29.89 in - SSW 15.0 mph - N/A   Clear
4:00 PM 77.0 °F - 55.4 °F 47% 29.89 in - SW 16.1 mph - N/A   Clear
5:00 PM 73 °F - 57 °F 46% 29.88 in 6 mi SSW 13.8 mph - -   Clear
5:00 PM 73.4 °F - 57.2 °F 57% 29.86 in - SSW 13.8 mph - N/A   Clear
6:00 PM 73.4 °F - 57.2 °F 57% 29.86 in - SW 12.7 mph - N/A   Clear
7:00 PM 69.8 °F - 55.4 °F 60% 29.86 in - SSW 12.7 mph - N/A   Clear
8:00 PM 69 °F - 54 °F 49% 29.85 in 25 mi SSW 9.2 mph - -   Clear
8:00 PM 69.8 °F - 53.6 °F 56% 29.83 in - SSW 9.2 mph - N/A   Clear
9:00 PM 68.0 °F - 55.4 °F 64% 29.86 in - SSW 9.2 mph - N/A   Clear
10:00 PM 68.0 °F - 51.8 °F 56% 29.86 in - SSW 8.1 mph - N/A   Clear
11:00 PM 65 °F - 52 °F 53% 29.83 in 19 mi South 9.2 mph - -   Clear
11:00 PM 64.4 °F - 51.8 °F 64% 29.83 in - South 9.2 mph - N/A   Clear